TimeEDT,TemperatureF,Dew PointF,Humidity,Sea Level PressureIn,VisibilityMPH,Wind Direction,Wind SpeedMPH,Gust SpeedMPH,PrecipitationIn,Events,Conditions,WindDirDegrees,DateUTC
12:54 AM,30.0,10.9,45,29.81,10.0,West,10.4,17.3,N/A,,Clear,280,2013-03-22 04:54:00
1:54 AM,30.0,12.0,47,29.81,10.0,West,8.1,-,N/A,,Clear,270,2013-03-22 05:54:00
2:54 AM,30.0,12.9,49,29.81,10.0,West,9.2,-,N/A,,Clear,270,2013-03-22 06:54:00
3:54 AM,30.0,14.0,51,29.80,10.0,West,9.2,-,N/A,,Partly Cloudy,260,2013-03-22 07:54:00
4:54 AM,28.9,14.0,54,29.81,10.0,West,8.1,-,N/A,,Clear,260,2013-03-22 08:54:00
5:54 AM,28.9,16.0,58,29.81,10.0,West,5.8,-,N/A,,Clear,260,2013-03-22 09:54:00
6:54 AM,28.9,16.0,58,29.83,10.0,West,6.9,-,N/A,,Clear,270,2013-03-22 10:54:00
7:54 AM,30.0,17.1,59,29.84,10.0,West,8.1,-,N/A,,Clear,270,2013-03-22 11:54:00
8:54 AM,30.9,17.1,57,29.86,10.0,West,11.5,21.9,N/A,,Partly Cloudy,270,2013-03-22 12:54:00
9:54 AM,34.0,19.0,54,29.87,10.0,West,9.2,23.0,N/A,,Partly Cloudy,280,2013-03-22 13:54:00
10:54 AM,35.1,18.0,50,29.87,10.0,West,13.8,21.9,N/A,,Overcast,270,2013-03-22 14:54:00
11:54 AM,37.0,17.1,44,29.86,10.0,WNW,16.1,25.3,N/A,,Overcast,290,2013-03-22 15:54:00
12:54 PM,37.9,16.0,41,29.85,10.0,West,9.2,20.7,N/A,,Overcast,280,2013-03-22 16:54:00
1:54 PM,37.9,16.0,41,29.84,10.0,WNW,9.2,18.4,N/A,,Overcast,300,2013-03-22 17:54:00
2:54 PM,39.9,17.1,40,29.84,10.0,West,15.0,23.0,N/A,,Overcast,260,2013-03-22 18:54:00
3:54 PM,41.0,16.0,36,29.84,10.0,WNW,15.0,23.0,N/A,,Overcast,290,2013-03-22 19:54:00
4:54 PM,41.0,17.1,38,29.85,10.0,West,18.4,26.5,N/A,,Scattered Clouds,280,2013-03-22 20:54:00
5:54 PM,41.0,17.1,38,29.86,10.0,NW,10.4,18.4,N/A,,Overcast,310,2013-03-22 21:54:00
6:54 PM,39.9,18.0,41,29.88,10.0,WNW,9.2,-,N/A,,Overcast,290,2013-03-22 22:54:00
7:54 PM,37.9,17.1,43,29.91,10.0,WNW,10.4,21.9,N/A,,Partly Cloudy,300,2013-03-22 23:54:00
8:54 PM,37.0,17.1,44,29.93,10.0,West,8.1,-,N/A,,Clear,270,2013-03-23 00:54:00
9:54 PM,36.0,18.0,48,29.94,10.0,WNW,6.9,-,N/A,,Clear,290,2013-03-23 01:54:00
10:54 PM,36.0,18.0,48,29.94,10.0,WNW,8.1,-,N/A,,Clear,290,2013-03-23 02:54:00
11:54 PM,35.1,18.0,50,29.94,10.0,West,11.5,17.3,N/A,,Clear,270,2013-03-23 03:54:00